Skip Page Navigation
NASA JPL Caltech
NASA Logo - Jet Propulsion Laboratory + View the NASA Portal
+ Center for Near-Earth Object Studies
JPL Home Earth Solar System Stars & Galaxies Technology
JPL Solar System Dynamics
BODIES ORBITS EPHEMERIDES TOOLS PHYSICAL DATA DISCOVERY FAQ SITE MAP
JPL Small-Body Database Browser
Search: [ help ]  
79601 (1998 RB43)
Classification: Main-belt Asteroid          SPK-ID: 2079601
Ephemeris | Orbit Diagram | Orbital Elements | Mission Design | Physical Parameters | Discovery Circumstances | Close-Approach Data ]

[ show orbit diagram ]
Orbital Elements at Epoch 2459000.5 (2020-May-31.0) TDB
Reference: JPL 16 (heliocentric ecliptic J2000)
 Element Value Uncertainty (1-sigma)   Units 
e .1459655285570172 8.4668e-08  
a 2.47336886064091 1.4947e-08 au
q 2.112342267580992 2.0514e-07 au
i 4.226112935661779 4.2424e-06 deg
node 312.6611656000586 8.04e-05 deg
peri 63.26004986555151 8.2663e-05 deg
M 191.4472511542492 2.5005e-05 deg
tp 2459665.719695151889
(2022-Mar-27.21969515)
0.00010338 TDB
period 1420.796112164487
3.89
1.2879e-05
3.526e-08
d
yr
n .2533790717174502 2.2968e-09 deg/d
Q 2.834395453700828 1.7129e-08 au
  Orbit Determination Parameters
   # obs. used (total)      436  
   data-arc span      9392 days (25.71 yr)  
   first obs. used      1994-08-10  
   last obs. used      2020-04-27  
   planetary ephem.      DE431  
   SB-pert. ephem.      SB431-N16  
   condition code      0  
   norm. resid. RMS      .5727  
   source      ORB  
   producer      Otto Matic  
   solution date      2020-May-20 14:42:29  

Additional Information
 Earth MOID = 1.11732 au 
 Jupiter MOID = 2.65119 au 
 T_jup = 3.464 
[ show covariance matrix ]

Ephemeris | Orbit Diagram | Orbital Elements | Mission Design | Physical Parameters | Discovery Circumstances | Close-Approach Data ]

Physical Parameter Table
Parameter Symbol Value Units Sigma Reference Notes
absolute magnitude H 16.3   n/a MPO468752  

79601 (1998 RB43)          Discovered 1998-Sep-14 by LINEAR at Socorro
Reference: 20040504/Numbers.arcLast Updated: 2004-07-16

[ show close-approach data ]
Alternate Designations
 1998 RB43 = 1994 PE7 
Ephemeris | Orbit Diagram | Orbital Elements | Mission Design | Physical Parameters | Discovery Circumstances | Close-Approach Data ]
ABOUT SSD CREDITS/AWARDS PRIVACY/COPYRIGHT GLOSSARY LINKS
FirstGov 2020-Jul-09 15:44 UT
(server date/time)  
NASA Home Page
Site Manager:   Ryan S. Park
Webmaster  Alan B. Chamberlin